RYR5224 EGGP-EINN

Flight info

Callsign RYR5224
Flight time N/A
Altitude 36000
Route WAL L10 PENIL M144 BAGSO DCT PELIG DCT DIGAN DIGAN2E
Aircraft B738/M-SDE2E3FGHIRWXY/LB1

Departure

Time 2026-04-29 18:39
Airport Liverpool John Lennon Airport (EGGP)

Arrival

Time N/A
Airport Shannon Airport (EINN)
Time Latitude Longitude Altitude Speed Heading
2026-04-29 18:16 53.33658 -2.85590 88 ft 0 kts 358°
2026-04-29 18:30 53.33657 -2.85590 84 ft 1 kts 358°
2026-04-29 18:30 53.33634 -2.85589 84 ft 2 kts 358°
2026-04-29 18:30 53.33614 -2.85591 85 ft 4 kts 35°
2026-04-29 18:31 53.33606 -2.85620 87 ft 4 kts 85°
2026-04-29 18:31 53.33605 -2.85649 85 ft 0 kts 85°
2026-04-29 18:34 53.33605 -2.85647 85 ft 1 kts 85°
2026-04-29 18:34 53.33606 -2.85629 86 ft 5 kts 85°
2026-04-29 18:35 53.33604 -2.85545 84 ft 9 kts 115°
2026-04-29 18:35 53.33530 -2.85513 88 ft 15 kts 195°
2026-04-29 18:35 53.33497 -2.85673 88 ft 17 kts 265°
2026-04-29 18:35 53.33486 -2.85896 85 ft 22 kts 266°
2026-04-29 18:36 53.33475 -2.86179 84 ft 25 kts 264°
2026-04-29 18:36 53.33460 -2.86456 84 ft 23 kts 265°
2026-04-29 18:36 53.33444 -2.86688 86 ft 10 kts 239°
2026-04-29 18:36 53.33380 -2.86732 84 ft 10 kts 185°
2026-04-29 18:37 53.33368 -2.86731 84 ft 0 kts 175°
2026-04-29 18:37 53.33343 -2.86721 86 ft 7 kts 161°
2026-04-29 18:37 53.33299 -2.86662 84 ft 9 kts 130°
2026-04-29 18:38 53.33290 -2.86564 86 ft 9 kts 85°
2026-04-29 18:38 53.33304 -2.86233 84 ft 62 kts 85°
2026-04-29 18:38 53.33353 -2.85140 89 ft 124 kts 85°
2026-04-29 18:38 53.33445 -2.83523 484 ft 142 kts 86°
2026-04-29 18:39 53.33542 -2.81884 1309 ft 140 kts 85°
2026-04-29 18:39 53.33647 -2.80179 1833 ft 157 kts 80°
2026-04-29 18:39 53.34126 -2.78447 2402 ft 173 kts 54°
2026-04-29 18:39 53.34812 -2.77473 2793 ft 192 kts 37°
2026-04-29 18:40 53.36196 -2.76938 3285 ft 225 kts
2026-04-29 18:40 53.37782 -2.77976 3515 ft 271 kts 324°
2026-04-29 18:40 53.38878 -2.80703 3877 ft 295 kts 285°
2026-04-29 18:40 53.39187 -2.84103 4628 ft 296 kts 270°
2026-04-29 18:41 53.39193 -2.94441 7109 ft 299 kts 266°
2026-04-29 18:41 53.39181 -2.97925 7882 ft 302 kts 267°
2026-04-29 18:42 53.39181 -3.01465 8663 ft 305 kts 268°
2026-04-29 18:42 53.39186 -3.05034 9486 ft 308 kts 268°
2026-04-29 18:42 53.39192 -3.08643 10325 ft 311 kts 268°
2026-04-29 18:42 53.39283 -3.12328 10800 ft 329 kts 279°
2026-04-29 18:43 53.40200 -3.15959 11119 ft 349 kts 304°
2026-04-29 18:43 53.41617 -3.19314 11777 ft 356 kts 306°
2026-04-29 18:43 53.43082 -3.22684 12538 ft 360 kts 306°
2026-04-29 18:43 53.44565 -3.26097 13338 ft 364 kts 306°
2026-04-29 18:44 53.46061 -3.29566 14139 ft 369 kts 306°
2026-04-29 18:44 53.47566 -3.33082 14865 ft 373 kts 305°
2026-04-29 18:44 53.49082 -3.36646 15633 ft 377 kts 305°
2026-04-29 18:44 53.50577 -3.40177 16397 ft 380 kts 305°
2026-04-29 18:45 53.52119 -3.43827 17164 ft 385 kts 304°
2026-04-29 18:45 53.53673 -3.47512 17908 ft 389 kts 304°
2026-04-29 18:45 53.54953 -3.50554 18513 ft 393 kts 304°
2026-04-29 18:45 53.56539 -3.54323 19162 ft 397 kts 304°
2026-04-29 18:46 53.58144 -3.58145 19820 ft 401 kts 304°
2026-04-29 18:46 53.59742 -3.62018 20481 ft 404 kts 300°
2026-04-29 18:46 53.60997 -3.66253 21117 ft 406 kts 288°
2026-04-29 18:46 53.61791 -3.70818 21773 ft 406 kts 278°
2026-04-29 18:47 53.62105 -3.75469 22397 ft 407 kts 270°
2026-04-29 18:47 53.62267 -3.80307 23029 ft 410 kts 269°
2026-04-29 18:47 53.62421 -3.85124 23662 ft 413 kts 270°
2026-04-29 18:47 53.62605 -3.89972 24208 ft 417 kts 270°
2026-04-29 18:48 53.62805 -3.94793 24732 ft 419 kts 270°
2026-04-29 18:48 53.63008 -3.99704 25277 ft 421 kts 270°
2026-04-29 18:48 53.63204 -4.04636 25812 ft 423 kts 270°
2026-04-29 18:48 53.63396 -4.09573 26330 ft 425 kts 270°
2026-04-29 18:49 53.63586 -4.14553 26833 ft 427 kts 269°
2026-04-29 18:49 53.63773 -4.19563 27357 ft 428 kts 269°
2026-04-29 18:49 53.63960 -4.24563 27975 ft 427 kts 269°
2026-04-29 18:49 53.64144 -4.29528 28721 ft 422 kts 269°
2026-04-29 18:50 53.64324 -4.34447 29436 ft 419 kts 269°
2026-04-29 18:50 53.64497 -4.39331 30058 ft 417 kts 269°
2026-04-29 18:50 53.64666 -4.44159 30581 ft 417 kts 269°
2026-04-29 18:50 53.64834 -4.49030 31038 ft 417 kts 269°
2026-04-29 18:51 53.65002 -4.53916 31470 ft 418 kts 269°
2026-04-29 18:51 53.65169 -4.58847 31667 ft 424 kts 269°
2026-04-29 18:51 53.65336 -4.63825 31872 ft 426 kts 269°
2026-04-29 18:51 53.65504 -4.68794 32092 ft 424 kts 269°
2026-04-29 18:52 53.65669 -4.73741 32278 ft 422 kts 269°
2026-04-29 18:52 53.65831 -4.78687 32265 ft 422 kts 269°
2026-04-29 18:52 53.66150 -4.88542 32297 ft 421 kts 269°
2026-04-29 18:53 53.66464 -4.98020 32291 ft 422 kts 268°
2026-04-29 18:53 53.66786 -5.07897 32286 ft 422 kts 268°
2026-04-29 18:54 53.67095 -5.17793 32285 ft 423 kts 268°
2026-04-29 18:54 53.67381 -5.27701 32279 ft 423 kts 268°
2026-04-29 18:55 53.67661 -5.37611 32282 ft 423 kts 268°
2026-04-29 18:55 53.67779 -5.47497 32275 ft 418 kts 259°
2026-04-29 18:56 53.66386 -5.56813 32286 ft 405 kts 242°
2026-04-29 18:56 53.64156 -5.65523 32282 ft 405 kts 240°
2026-04-29 18:57 53.61896 -5.74218 32279 ft 405 kts 240°
2026-04-29 18:57 53.59692 -5.82782 32276 ft 406 kts 240°
2026-04-29 18:58 53.57458 -5.91504 32269 ft 406 kts 240°
2026-04-29 18:58 53.55223 -6.00216 32269 ft 406 kts 240°
2026-04-29 18:59 53.52996 -6.08865 32267 ft 406 kts 240°
2026-04-29 18:59 53.50749 -6.17559 32273 ft 406 kts 240°
2026-04-29 19:00 53.48495 -6.26247 32266 ft 406 kts 240°
2026-04-29 19:00 53.46231 -6.34937 32270 ft 406 kts 240°
2026-04-29 19:01 53.43965 -6.43602 32271 ft 406 kts 240°
2026-04-29 19:01 53.41692 -6.52264 32266 ft 406 kts 240°
2026-04-29 19:02 53.39782 -6.59512 32267 ft 405 kts 240°
2026-04-29 19:02 53.37132 -6.69536 32266 ft 405 kts 240°
2026-04-29 19:03 53.34945 -6.77774 32265 ft 405 kts 239°
2026-04-29 19:03 53.32652 -6.86378 32254 ft 405 kts 239°
2026-04-29 19:04 53.30371 -6.94903 32244 ft 405 kts 239°
2026-04-29 19:04 53.28058 -7.03519 31866 ft 407 kts 239°
2026-04-29 19:05 53.26900 -7.07823 31617 ft 404 kts 239°
2026-04-29 19:05 53.25749 -7.12094 31368 ft 403 kts 239°
2026-04-29 19:05 53.24594 -7.16369 31117 ft 403 kts 239°
2026-04-29 19:05 53.23442 -7.20626 30796 ft 402 kts 239°
2026-04-29 19:06 53.22288 -7.24887 30307 ft 402 kts 238°
2026-04-29 19:06 53.21135 -7.29131 29702 ft 402 kts 238°
2026-04-29 19:06 53.18792 -7.37542 28526 ft 399 kts 237°
2026-04-29 19:07 53.17552 -7.41682 27936 ft 399 kts 236°
2026-04-29 19:07 53.16721 -7.44413 27534 ft 399 kts 236°
2026-04-29 19:07 53.15047 -7.49904 26881 ft 397 kts 236°
2026-04-29 19:07 53.13784 -7.54046 26297 ft 407 kts 237°
2026-04-29 19:08 53.12483 -7.58310 25650 ft 416 kts 237°
2026-04-29 19:08 53.11177 -7.62617 24987 ft 417 kts 237°
2026-04-29 19:08 53.09876 -7.66922 24426 ft 415 kts 237°
2026-04-29 19:08 53.08587 -7.71188 23917 ft 412 kts 237°
2026-04-29 19:09 53.07302 -7.75435 23351 ft 409 kts 237°
2026-04-29 19:09 53.06027 -7.79636 22787 ft 406 kts 237°
2026-04-29 19:09 53.04759 -7.83802 22285 ft 401 kts 237°
2026-04-29 19:09 53.03501 -7.87925 21771 ft 398 kts 237°
2026-04-29 19:10 53.02256 -7.92000 21273 ft 394 kts 237°
2026-04-29 19:10 53.01119 -7.95713 20818 ft 391 kts 237°
2026-04-29 19:10 52.99888 -7.99722 20331 ft 388 kts 237°
2026-04-29 19:10 52.98667 -8.03698 19843 ft 385 kts 237°
2026-04-29 19:11 52.97465 -8.07605 19368 ft 383 kts 237°
2026-04-29 19:11 52.96243 -8.11572 18887 ft 380 kts 237°
2026-04-29 19:11 52.95041 -8.15465 18396 ft 378 kts 237°
2026-04-29 19:11 52.93881 -8.19311 17851 ft 379 kts 241°
2026-04-29 19:12 52.93209 -8.23624 17378 ft 384 kts 256°
2026-04-29 19:12 52.92817 -8.27927 16884 ft 383 kts 257°
2026-04-29 19:12 52.92430 -8.32295 16393 ft 384 kts 257°
2026-04-29 19:12 52.92297 -8.33779 16229 ft 384 kts 257°
2026-04-29 19:13 52.91631 -8.41008 15423 ft 379 kts 257°
2026-04-29 19:13 52.91221 -8.45314 14950 ft 377 kts 257°
2026-04-29 19:13 52.90806 -8.49580 14484 ft 374 kts 257°
2026-04-29 19:13 52.90390 -8.53819 14007 ft 372 kts 257°
2026-04-29 19:14 52.89984 -8.57925 13508 ft 370 kts 257°
2026-04-29 19:14 52.89588 -8.61908 13032 ft 368 kts 257°
2026-04-29 19:14 52.89173 -8.66069 12558 ft 365 kts 257°
2026-04-29 19:14 52.88761 -8.70198 12089 ft 362 kts 257°
2026-04-29 19:15 52.88351 -8.74288 11623 ft 360 kts 257°
2026-04-29 19:15 52.87941 -8.78361 11138 ft 358 kts 257°
2026-04-29 19:15 52.87531 -8.82420 10688 ft 355 kts 257°
2026-04-29 19:15 52.87102 -8.86412 10425 ft 346 kts 252°
2026-04-29 19:16 52.86181 -8.89935 10329 ft 325 kts 232°
2026-04-29 19:16 52.84871 -8.92869 10265 ft 310 kts 227°
2026-04-29 19:16 52.83565 -8.95611 10172 ft 297 kts 226°
2026-04-29 19:16 52.82291 -8.98258 9721 ft 292 kts 226°
2026-04-29 19:17 52.81027 -9.00887 9138 ft 293 kts 227°
2026-04-29 19:17 52.79766 -9.03523 8618 ft 291 kts 227°